TimeCDT,TemperatureF,Dew PointF,Humidity,Sea Level PressureIn,VisibilityMPH,Wind Direction,Wind SpeedMPH,Gust SpeedMPH,PrecipitationIn,Events,Conditions,WindDirDegrees,DateUTC
12:52 AM,42.1,28.0,58,30.15,10.0,SSW,6.9,-,N/A,,Mostly Cloudy,210,2012-10-08 05:52:00
1:52 AM,39.9,28.0,63,30.15,10.0,SSW,6.9,-,N/A,,Clear,210,2012-10-08 06:52:00
2:52 AM,37.0,27.0,67,30.14,10.0,SSW,3.5,-,N/A,,Clear,200,2012-10-08 07:52:00
3:52 AM,36.0,27.0,70,30.12,10.0,SSW,4.6,-,N/A,,Clear,200,2012-10-08 08:52:00
4:52 AM,35.1,27.0,72,30.11,10.0,SSW,4.6,-,N/A,,Clear,200,2012-10-08 09:52:00
5:52 AM,34.0,27.0,75,30.11,10.0,South,3.5,-,N/A,,Clear,170,2012-10-08 10:52:00
6:52 AM,35.1,28.0,76,30.10,10.0,Calm,Calm,-,N/A,,Clear,0,2012-10-08 11:52:00
7:52 AM,35.1,28.9,78,30.10,10.0,South,4.6,-,N/A,,Clear,180,2012-10-08 12:52:00
8:52 AM,43.0,32.0,65,30.09,10.0,SSW,10.4,-,N/A,,Clear,200,2012-10-08 13:52:00
9:52 AM,48.0,32.0,54,30.09,10.0,SSW,12.7,-,N/A,,Clear,210,2012-10-08 14:52:00
10:52 AM,53.1,33.1,47,30.08,10.0,SSW,9.2,-,N/A,,Clear,210,2012-10-08 15:52:00
11:52 AM,59.0,33.1,38,30.06,10.0,South,15.0,-,N/A,,Clear,180,2012-10-08 16:52:00
12:52 PM,64.9,33.1,31,30.02,10.0,South,16.1,-,N/A,,Clear,190,2012-10-08 17:52:00
1:52 PM,68.0,30.9,25,29.98,10.0,SSW,18.4,31.1,N/A,,Clear,210,2012-10-08 18:52:00
2:52 PM,70.0,30.9,24,29.95,10.0,SSW,13.8,24.2,N/A,,Clear,200,2012-10-08 19:52:00
3:52 PM,71.1,30.0,22,29.92,10.0,SSW,20.7,27.6,N/A,,Clear,200,2012-10-08 20:52:00
5:52 PM,68.0,28.9,23,29.91,10.0,South,18.4,26.5,N/A,,Clear,190,2012-10-08 22:52:00
7:52 PM,59.0,33.1,38,29.92,10.0,South,12.7,-,N/A,,Clear,180,2012-10-09 00:52:00
8:52 PM,57.0,34.0,42,29.93,10.0,South,12.7,-,N/A,,Clear,180,2012-10-09 01:52:00
9:52 PM,55.0,34.0,45,29.94,10.0,South,11.5,-,N/A,,Clear,180,2012-10-09 02:52:00
10:52 PM,52.0,35.1,53,29.95,10.0,South,10.4,-,N/A,,Clear,170,2012-10-09 03:52:00
11:52 PM,52.0,35.1,53,29.94,10.0,South,12.7,-,N/A,,Clear,180,2012-10-09 04:52:00